| time (UTC) | temp F | wind direction | speed MPH | gust MPH | rain 1hr in | rain 24hr in | rain mn in | humidity % | barometer mb |
| 20260504043100 | 59 | 225 | 2.0 | 8.0 | 0.00 | 0.00 | 0.00 | 71 | 1013.6 |
| 20260504041510 | 59 | 295 | 1.0 | 5.0 | 0.00 | 0.00 | 0.00 | 70 | 1013.3 |
| 20260504040125 | 60 | 335 | 2.0 | 8.0 | 0.00 | 0.00 | 0.00 | 70 | 1013.4 |
| 20260504034552 | 60 | 262 | 3.0 | 10.0 | 0.00 | 0.00 | 0.00 | 69 | 1013.2 |
| 20260504033127 | 60 | 263 | 3.0 | 13.0 | 0.00 | 0.00 | 0.00 | 70 | 1013.0 |
| 20260504031545 | 60 | 15 | 3.0 | 10.0 | 0.00 | 0.00 | 0.00 | 70 | 1012.8 |
| 20260504030128 | 61 | 235 | 4.0 | 12.0 | 0.00 | 0.00 | 0.00 | 70 | 1012.5 |
| 20260504024540 | 61 | 197 | 2.0 | 16.0 | 0.00 | 0.00 | 0.00 | 69 | 1012.3 |
| 20260504023126 | 62 | 285 | 2.0 | 10.0 | 0.00 | 0.00 | 0.00 | 68 | 1012.1 |
| 20260504021542 | 62 | 205 | 3.0 | 10.0 | 0.00 | 0.00 | 0.00 | 66 | 1011.8 |
| 20260504020120 | 63 | 222 | 4.0 | 13.0 | 0.00 | 0.00 | 0.00 | 64 | 1011.7 |
| 20260504014550 | 63 | 221 | 7.0 | 14.0 | 0.00 | 0.00 | 0.00 | 62 | 1011.3 |
| 20260504013135 | 64 | 245 | 4.0 | 15.0 | 0.00 | 0.00 | 0.00 | 60 | 1011.3 |
| 20260504011559 | 65 | 248 | 3.0 | 10.0 | 0.00 | 0.00 | 0.00 | 60 | 1011.2 |
| 20260504010028 | 65 | 235 | 7.0 | 14.0 | 0.00 | 0.00 | 0.00 | 59 | 1011.0 |
| 20260504004618 | 66 | 236 | 6.0 | 16.0 | 0.00 | 0.00 | 0.00 | 59 | 1010.8 |
| 20260504003032 | 67 | 214 | 4.0 | 12.0 | 0.00 | 0.00 | 0.00 | 58 | 1010.9 |
| 20260504001627 | 68 | 242 | 7.0 | 14.0 | 0.00 | 0.00 | 0.00 | 56 | 1010.6 |
| 20260504000053 | 68 | 285 | 5.0 | 14.0 | 0.00 | 0.00 | 0.00 | 58 | 1010.7 |
| 20260503234504 | 69 | 259 | 4.0 | 12.0 | 0.00 | 0.00 | 0.00 | 58 | 1010.6 |
| 20260503233038 | 68 | 229 | 7.0 | 12.0 | 0.00 | 0.00 | 0.00 | 60 | 1010.9 |
| 20260503231510 | 68 | 242 | 5.0 | 13.0 | 0.00 | 0.00 | 0.00 | 61 | 1010.8 |
| 20260503230104 | 68 | 228 | 4.0 | 12.0 | 0.00 | 0.00 | 0.00 | 62 | 1011.0 |
| 20260503224502 | 69 | 257 | 4.0 | 12.0 | 0.00 | 0.00 | 0.00 | 61 | 1011.1 |
| 20260503223039 | 69 | 229 | 5.0 | 13.0 | 0.00 | 0.00 | 0.00 | 63 | 1011.2 |
| 20260503221635 | 69 | 219 | 3.0 | 13.0 | 0.00 | 0.00 | 0.00 | 64 | 1011.4 |
| 20260503220123 | 69 | 257 | 2.0 | 8.0 | 0.00 | 0.00 | 0.00 | 63 | 1011.5 |
| 20260503214547 | 69 | 296 | 4.0 | 9.0 | 0.00 | 0.00 | 0.00 | 62 | 1011.7 |
| 20260503213132 | 69 | 290 | 5.0 | 10.0 | 0.00 | 0.00 | 0.00 | 62 | 1011.7 |
| 20260503211609 | 68 | 36 | 2.0 | 7.0 | 0.00 | 0.00 | 0.00 | 67 | 1011.8 |
| 20260503210132 | 69 | 300 | 1.0 | 3.0 | 0.00 | 0.00 | 0.00 | 66 | 1012.0 |
| 20260503204546 | 66 | 219 | 1.0 | 7.0 | 0.00 | 0.00 | 0.00 | 71 | 1012.1 |
| 20260503203026 | 65 | 305 | 1.0 | 7.0 | 0.00 | 0.00 | 0.00 | 73 | 1012.3 |
| 20260503201620 | 65 | 311 | 1.0 | 12.0 | 0.00 | 0.00 | 0.00 | 73 | 1012.4 |
| 20260503200053 | 64 | 275 | 5.0 | 9.0 | 0.00 | 0.00 | 0.00 | 76 | 1012.6 |
| 20260503194628 | 63 | 5 | 3.0 | 10.0 | 0.00 | 0.00 | 0.00 | 79 | 1012.8 |
| 20260503193040 | 62 | 301 | 4.0 | 10.0 | 0.00 | 0.00 | 0.00 | 82 | 1013.0 |
| 20260503191631 | 62 | 243 | 3.0 | 10.0 | 0.00 | 0.00 | 0.00 | 83 | 1013.1 |
| 20260503190048 | 61 | 293 | 3.0 | 9.0 | 0.00 | 0.00 | 0.00 | 87 | 1013.1 |
| 20260503184504 | 59 | 310 | 3.0 | 7.0 | 0.00 | 0.00 | 0.00 | 89 | 1013.3 |
| 20260503183042 | 59 | 314 | 1.0 | 7.0 | 0.00 | 0.00 | 0.00 | 91 | 1013.4 |
| 20260503181628 | 59 | 231 | 2.0 | 9.0 | 0.00 | 0.00 | 0.00 | 91 | 1013.4 |
| 20260503180044 | 59 | 290 | 2.0 | 5.0 | 0.00 | 0.00 | 0.00 | 90 | 1013.4 |
| 20260503174628 | 59 | 249 | 3.0 | 5.0 | 0.00 | 0.00 | 0.00 | 91 | 1013.3 |
| 20260503173118 | 59 | 303 | 2.0 | 6.0 | 0.00 | 0.00 | 0.00 | 92 | 1013.2 |
| 20260503171541 | 59 | 309 | 2.0 | 6.0 | 0.00 | 0.00 | 0.00 | 93 | 1013.0 |
| 20260503170129 | 59 | 240 | 2.0 | 5.0 | 0.00 | 0.00 | 0.00 | 93 | 1013.0 |
| 20260503150133 | 57 | 294 | 1.0 | 3.0 | 0.00 | 0.00 | 0.00 | 94 | 1012.5 |
| 20260503140133 | 57 | 312 | 2.0 | 5.0 | 0.00 | 0.00 | 0.00 | 94 | 1012.2 |
| 20260503120130 | 58 | 297 | 1.0 | 3.0 | 0.00 | 0.00 | 0.00 | 92 | 1011.1 |
| 20260503081546 | 58 | 290 | 1.0 | 5.0 | 0.00 | 0.00 | 0.00 | 88 | 1011.8 |
| 20260503071547 | 59 | 129 | 0.0 | 1.0 | 0.00 | 0.00 | 0.00 | 84 | 1011.5 |
| 20260503070138 | 60 | 124 | 0.0 | 2.0 | 0.00 | 0.00 | 0.00 | 83 | 1011.5 |
| 20260503060113 | 61 | 236 | 1.0 | 5.0 | 0.00 | 0.00 | 0.00 | 81 | 1011.4 |
| 20260503054538 | 61 | 226 | 2.0 | 8.0 | 0.00 | 0.00 | 0.00 | 81 | 1011.6 |
| 20260503053127 | 61 | 315 | 3.0 | 7.0 | 0.00 | 0.00 | 0.00 | 80 | 1011.7 |
| 20260503051543 | 62 | 309 | 0.0 | 6.0 | 0.00 | 0.00 | 0.00 | 79 | 1011.5 |
| 20260503050125 | 62 | 304 | 2.0 | 6.0 | 0.00 | 0.00 | 0.00 | 79 | 1011.3 |
| 20260503044536 | 63 | 301 | 1.0 | 6.0 | 0.00 | 0.00 | 0.00 | 78 | 1011.2 |